Location: Artiguedieu
(43.5000°N, 0.5454°E)
Time: 20:22:43
(UTC+00:00)

Vanguard 1 - Pass Details

Date: 02 August 2021
Orbit: 652 x 3831 km, 34.3° (Epoch: 19 September)

Event Time Altitude Azimuth Distance (km) Brightness Sun altitude
Rises 15:48:29 0° 266° (W) 4,214 14.3 36.4°
Reaches altitude 10° 15:51:32 10° 253° (WSW) 3,607 14.3 35.9°
Maximum altitude 15:58:55 25° 202° (SSW) 3,422 13.5 34.5°
Drops below altitude 10° 16:10:09 10° 156° (SSE) 5,633 13.9 32.5°
Sets 16:16:43 0° 146° (SE) 7,180 14.2 31.3°
